RH
73 61 59 63 62 63 61 60 61 62 60 61 67 65 62 63 42 25 26 67 86 82 43 77 75 80 82 80 81 78 75 76 69 41 25 18 16 16 16 17 19 23 34
57 61 62 56 63 65 63 62 59 61 58 62 66 67 66 61 53 26 29 58 78 33 80 83 86 85 83 74 72 66 62 66 56 28 18 17 18 20 25 28 31 76 89
61 62 68 63 61 57 60 63 63 63 63 65 67 68 67 62 60 37 34 37 33 45 79 84 89 77 70 64 66 57 58 42 25 19 21 24 40 54 69 79 93 96 88
63 60 64 68 65 56 54 60 64 63 64 69 68 71 68 66 58 65 45 81 91 59 72 81 78 72 63 62 65 68 61 34 25 25 29 39 92 92 79 84 77 69 97
65 60 58 69 67 60 58 61 62 60 61 70 70 74 70 81 58 78 64 86 89 85 49 56 58 56 54 52 62 60 52 44 32 33 35 38 44 63 60 66 68 87 95
65 63 58 66 68 60 63 66 65 64 59 73 74 76 75 80 70 71 61 81 84 84 48 41 44 51 61 54 50 54 54 46 34 33 35 36 41 68 80 70 69 82 88
63 66 64 64 68 66 65 71 69 66 63 67 78 78 78 78 76 60 56 80 83 74 49 38 46 61 62 57 48 45 42 39 36 34 35 39 45 71 56 40 41 60 53
65 72 70 63 62 62 67 69 74 72 67 64 78 80 78 78 76 57 46 76 76 57 32 36 39 42 44 48 54 52 47 38 35 35 36 37 39 40 40 40 41 49 46
70 72 71 71 66 61 66 67 72 77 73 66 73 82 77 79 74 61 44 63 65 42 32 29 28 33 59 58 57 48 42 38 36 36 37 39 40 40 40 42 43 44 42
73 67 75 69 71 64 63 68 72 76 76 68 73 85 82 81 67 73 55 42 54 36 28 28 30 40 61 59 54 50 47 39 38 39 40 43 42 41 40 43 47 47 47
72 81 80 77 73 74 70 71 76 73 69 70 78 81 90 90 64 84 77 40 32 31 27 29 34 42 54 54 52 49 47 41 40 41 42 46 48 45 43 44 50 51 52
73 81 84 85 82 75 77 78 79 75 67 70 80 83 94 93 68 87 82 56 28 26 27 33 38 43 50 61 57 56 52 45 43 44 45 48 51 52 49 47 49 53 55
40 53 85 79 80 87 76 73 74 77 77 69 77 87 94 95 72 94 82 63 31 26 30 38 40 43 54 65 66 60 56 54 46 46 47 49 52 56 56 53 51 52 55
39 42 52 83 78 86 88 73 69 79 76 72 67 88 99 97 77 88 70 50 30 27 34 40 40 45 58 68 75 67 64 62 55 48 49 51 54 57 59 61 59 55 53
37 43 50 60 82 79 94 88 71 71 73 70 70 70 96 98 78 73 70 46 29 30 39 42 42 47 62 70 78 76 74 71 68 62 60 55 56 58 59 63 68 68 59
40 38 48 54 55 81 82 95 89 68 61 75 74 66 91 97 72 66 67 45 32 32 41 44 45 52 64 76 79 81 81 81 76 74 67 64 57 55 59 65 70 77 75
30 42 38 45 56 52 78 88 97 72 58 84 82 86 90 96 72 57 59 44 34 40 47 54 63 70 74 78 80 82 82 81 77 72 63 62 63 64 63 64 71 76 80
29 39 45 43 46 52 62 86 100 89 68 75 92 92 91 97 72 53 55 44 39 45 51 53 61 71 81 80 77 72 68 68 70 74 69 73 75 69 68 72 73 73 74
30 30 43 40 40 46 57 64 92 86 98 82 89 92 95 97 67 48 56 45 43 49 52 54 62 66 72 74 76 76 76 78 81 80 75 79 79 74 75 77 79 81 85
36 32 32 36 41 44 43 60 85 96 90 100 96 94 96 91 57 77 65 51 49 55 52 63 64 75 67 73 79 88 91 86 83 78 80 76 77 76 76 79 78 80 83
40 33 32 34 51 49 41 41 70 80 81 87 99 99 99 78 56 85 77 59 52 60 57 63 72 66 66 77 84 96 91 80 82 80 78 78 79 78 79 84 86 85 86
37 36 32 44 52 47 39 40 47 64 77 87 76 96 100 77 70 90 84 60 61 70 71 85 66 64 68 81 85 86 87 87 89 88 90 88 87 81 83 88 92 90 89
37 36 43 52 45 48 43 47 45 60 62 88 94 97 98 86 77 86 82 69 68 78 82 78 62 55 51 76 85 74 89 88 89 92 92 88 83 83 82 85 85 85 87
36 34 48 46 43 56 49 48 50 48 54 96 85 100 95 90 88 74 79 79 65 78 78 72 60 47 50 62 86 76 78 74 86 85 87 87 87 87 83 85 83 78 81
36 36 43 42 52 65 59 59 56 72 52 98 99 100 96 90 93 74 74 81 77 81 75 74 56 48 55 67 71 74 83 76 72 72 76 86 84 81 78 89 88 83 79
36 33 48 58 60 64 72 68 68 56 77 100 100 99 98 95 87 78 81 79 80 89 88 74 52 52 63 71 76 70 79 77 73 65 74 85 91 78 76 83 76 70 63
Wind_Speed
16 25 32 30 26 25 23 22 22 22 21 20 19 18 17 14 14 17 19 22 18 16 23 22 19 19 20 21 20 19 17 15 14 14 13 14 15 14 13 13 14 15 13
15 28 32 32 28 26 24 22 21 21 20 20 20 18 17 16 15 17 20 21 19 20 24 21 19 19 21 20 19 17 16 14 12 12 14 16 16 15 16 16 16 18 19
16 28 31 31 30 27 25 23 22 20 19 20 20 19 18 18 16 18 20 22 20 23 22 19 19 19 20 20 17 15 15 14 14 14 15 17 18 17 18 19 20 19 18
15 24 30 30 29 28 27 25 23 21 19 20 20 19 18 18 18 19 24 21 17 18 19 19 20 19 20 18 16 12 14 15 15 14 15 17 19 17 18 16 18 17 19
15 17 28 30 29 28 27 26 24 21 20 21 20 19 18 18 19 19 22 19 19 16 17 18 19 20 18 16 14 12 15 13 13 13 15 15 16 15 16 16 17 17 17
15 14 26 29 28 27 27 26 25 22 21 22 20 20 19 19 19 20 21 19 19 17 17 18 20 20 17 15 15 13 11 11 11 12 13 15 16 16 16 16 16 15 16
14 12 25 30 29 26 27 26 25 23 21 21 21 21 20 20 19 20 21 19 18 16 17 18 20 20 17 13 12 12 12 11 11 13 14 15 16 15 14 14 14 14 14
13 14 20 29 29 27 27 26 25 24 22 21 22 23 20 21 20 19 23 20 18 15 18 20 20 19 17 13 12 13 12 12 12 13 14 15 14 14 14 14 13 13 13
14 13 18 29 30 29 28 27 26 25 23 22 23 23 21 22 20 20 24 21 18 18 20 21 20 20 17 13 12 11 12 12 12 13 14 14 14 14 13 13 13 12 12
15 16 18 25 31 31 30 29 28 26 24 24 24 25 22 22 21 22 23 21 20 19 19 20 20 20 17 13 11 12 13 12 12 12 12 13 13 13 13 12 12 12 12
15 17 21 21 29 33 32 31 29 28 26 25 25 25 24 23 22 24 22 22 21 20 20 20 20 20 18 13 11 13 12 11 11 10 10 11 11 11 11 11 11 11 11
12 19 22 24 27 34 34 32 31 28 28 28 28 27 27 24 26 25 24 21 22 21 21 20 20 19 17 14 11 11 10 10 9 8 8 8 9 9 9 10 10 10 9
11 14 23 27 27 31 35 35 33 31 31 31 29 29 29 26 28 27 26 24 24 24 24 22 21 20 18 14 10 10 9 8 7 6 5 5 6 6 6 7 9 8 8
17 16 17 26 27 31 34 36 36 35 34 34 33 32 32 30 30 31 28 28 26 26 25 23 22 21 18 15 11 8 7 7 6 5 4 3 3 3 4 5 5 6 5
21 19 19 19 29 30 33 34 38 37 37 36 36 35 35 33 32 34 31 30 29 28 26 25 24 22 18 16 12 8 5 5 3 3 2 2 1 1 2 2 2 3 3
22 24 21 20 21 30 32 34 37 39 38 38 38 38 38 35 34 35 33 32 31 30 28 25 23 21 18 16 13 9 7 4 3 2 2 1 1 1 2 2 2 2 2
31 26 28 25 22 21 32 35 39 39 37 40 40 40 40 37 36 36 36 34 33 31 29 25 22 20 19 14 13 10 10 8 6 4 3 3 2 2 3 4 4 4 4
35 29 30 28 24 23 26 34 37 38 38 38 41 42 42 39 39 37 38 36 34 33 30 27 23 21 19 17 15 13 11 10 7 5 4 3 4 3 3 5 5 5 5
35 37 33 32 30 25 23 29 35 21 33 39 42 42 44 42 43 39 39 37 36 34 32 29 25 22 22 18 15 12 10 9 8 7 6 5 5 5 5 5 7 7 6
35 36 36 35 32 31 30 28 26 32 34 36 41 46 47 43 44 43 40 39 38 35 33 29 25 22 21 19 16 13 10 9 9 9 9 8 9 8 7 7 8 9 9
34 37 39 37 35 28 33 35 30 33 28 35 39 49 52 46 46 45 41 41 41 39 36 31 28 25 24 20 18 15 12 11 10 9 10 8 9 8 8 11 10 10 10
37 37 42 39 35 33 32 37 38 28 36 38 45 48 50 49 47 47 42 43 43 38 36 32 31 29 25 23 21 16 11 12 13 10 9 8 9 9 10 12 12 11 10
37 36 37 37 36 34 34 34 31 35 28 43 47 54 51 51 47 47 44 42 44 40 38 35 32 31 30 26 21 14 9 8 15 13 11 9 9 9 8 9 12 12 11
36 37 35 36 35 37 35 34 36 41 43 46 57 45 55 53 48 45 44 41 48 43 40 35 33 32 29 28 26 24 12 10 11 10 14 12 10 9 9 7 7 7 7
34 36 37 35 35 38 40 34 36 40 40 47 59 59 55 53 50 48 46 45 47 44 40 35 36 33 31 29 29 27 19 15 14 9 8 13 12 8 7 7 8 7 7
30 34 35 31 34 39 39 33 34 36 43 44 52 64 54 53 51 47 43 43 44 44 40 37 36 33 31 29 26 22 22 21 17 12 13 12 10 7 5 6 6 7 7
Wind_Direction
178 183 174 174 175 173 169 164 161 161 161 160 160 156 153 151 142 138 137 129 130 132 132 122 123 121 117 114 114 111 106 99 88 87 85 87 89 90 89 86 85 85 84
170 180 179 174 175 176 174 169 165 160 161 162 161 158 154 147 137 136 139 137 139 130 124 125 127 128 125 123 118 114 109 96 86 85 88 91 91 91 87 82 80 83 80
176 180 181 178 176 176 176 173 167 162 163 163 163 161 156 146 135 132 135 131 129 133 135 136 133 127 125 123 117 113 106 96 92 95 97 94 88 85 84 82 86 77 77
175 181 183 183 180 178 176 175 171 167 166 167 165 163 157 148 140 133 134 127 132 137 144 137 136 132 129 129 127 122 111 100 95 100 99 94 90 85 84 84 81 81 86
178 182 188 187 184 180 177 176 175 171 167 170 169 165 159 152 144 149 144 139 145 147 145 140 137 136 136 133 127 120 108 99 96 102 97 94 93 89 89 87 85 84 81
178 188 193 192 188 183 179 179 177 174 170 169 171 167 163 160 151 156 155 148 150 146 141 142 142 141 139 133 124 117 111 101 103 103 98 94 92 91 91 83 86 85 92
190 187 197 197 191 188 183 183 182 177 176 175 173 172 168 167 163 160 162 157 155 153 145 145 144 144 141 140 129 114 107 109 113 106 99 95 92 91 87 80 81 88 81
211 189 199 201 198 192 189 186 188 183 181 179 177 175 175 174 172 167 166 168 164 154 149 150 148 149 147 149 135 120 114 113 110 108 105 95 88 88 82 80 77 78 74
218 217 199 203 201 196 193 191 191 191 186 183 183 180 182 180 177 170 167 173 168 158 154 154 151 149 149 146 127 115 111 114 115 109 101 95 91 87 80 77 75 75 74
225 231 210 207 205 202 196 196 194 193 191 188 189 187 184 184 182 176 171 172 173 166 160 157 154 152 153 149 135 120 118 115 114 109 102 96 93 90 80 76 77 76 76
236 227 218 216 212 206 201 196 196 194 192 192 192 192 185 185 187 181 177 172 174 171 165 160 157 157 156 154 144 129 122 116 115 112 107 100 94 90 82 78 76 75 74
242 235 227 217 223 211 206 199 195 195 194 193 196 192 190 189 190 183 182 179 175 172 166 162 160 159 157 155 152 133 119 113 121 119 112 106 98 94 87 78 75 73 72
269 266 235 226 219 223 212 203 197 195 195 194 197 197 194 191 193 188 187 185 179 175 169 165 162 158 155 155 163 142 126 120 126 129 123 113 104 95 88 80 72 70 67
287 257 268 236 226 224 218 210 203 198 199 196 195 199 196 196 195 193 191 184 181 176 173 169 163 160 157 158 166 159 130 125 127 137 135 123 102 90 78 74 70 67 63
284 277 256 256 237 225 219 216 211 204 202 200 197 197 200 200 199 196 192 187 181 178 176 171 167 166 165 166 171 175 168 151 143 141 143 121 102 62 52 53 44 45 48
267 270 265 255 252 233 223 220 218 212 205 202 202 198 199 203 203 198 193 189 183 181 177 177 174 173 172 172 174 185 204 202 211 222 205 193 214 272 299 304 307 324 344
255 259 264 256 252 250 229 217 221 215 211 205 204 201 198 206 205 201 195 190 185 180 179 177 179 180 179 176 178 196 224 231 235 254 265 265 283 290 287 280 289 300 315
253 251 256 253 252 251 245 229 191 211 208 212 207 204 202 206 207 202 196 192 187 183 184 185 183 184 184 191 197 199 205 213 221 235 241 253 286 280 300 285 288 283 291
248 242 247 252 250 247 251 246 235 230 220 215 214 209 207 206 205 204 198 192 188 188 188 190 190 191 193 194 197 201 202 208 228 249 249 255 268 274 294 288 281 288 297
252 241 241 249 250 245 246 250 232 220 223 216 220 214 209 205 205 201 200 196 190 189 190 193 196 195 201 198 201 203 206 219 231 239 242 250 267 275 280 291 290 276 282
253 236 234 239 239 238 242 240 234 229 222 218 213 220 209 203 202 202 200 198 194 194 195 194 197 200 194 195 195 200 208 212 214 218 230 251 258 265 278 281 280 277 275
252 237 231 229 231 238 238 240 241 234 227 221 216 220 204 200 203 202 200 198 196 197 199 199 201 196 199 196 196 192 196 206 209 210 224 233 248 259 273 276 275 275 275
244 233 227 221 232 228 228 237 244 232 235 221 215 215 200 202 202 202 202 201 198 199 201 204 203 205 199 196 197 186 180 204 200 212 219 231 235 253 262 268 277 282 282
239 229 222 226 234 222 224 231 237 234 230 230 212 205 203 205 201 202 202 206 202 201 206 206 207 205 205 201 197 203 204 202 180 194 216 222 229 259 270 252 269 274 282
233 223 224 233 230 227 228 227 236 227 233 227 210 206 202 199 201 201 205 209 204 207 209 211 208 206 209 209 210 203 203 192 198 204 212 215 232 249 253 254 255 258 272
229 225 227 228 230 226 226 226 225 230 222 195 184 191 194 194 198 201 205 203 206 210 212 215 212 209 210 210 216 212 213 212 214 228 225 223 233 219 215 229 262 262 274